STARLINK-1186 (45099 NORAD) Tracking and Keplerian Element Data

This shows tracking and keplerian element data for the satellite.

Feedback or suggestion? Click here.




ElementValue
Catalog45099
NameSTARLINK-1186
Epoch Orbit177
Epoch Day52.91667824
Epoch Year2020
RAAN119.5075
Inclination52.9964
Eccentricity0.0001404
Argument of Perigee52.8889
Mean Anonmoly93.3281
Mean Motion15.73134636
Decay Rate0.00366736
L11 45099U 20006BH 20052.91667824 .00366736 00000-0 25114-2 0 9993
L22 45099 52.9964 119.5075 0001404 52.8889 93.3281 15.73134636 1771

Live tracking and technical data element details for STARLINK-1186 (NORAD 45099). STARLINK-1186 can be tracked NOW for your location showing map with azimuth and elevation plus other details from your city location.

Track the satellite on the map from your city or location and see movement details for azimuth, elevation, latitude, longitude, range, height, and movement on the map or in text.







IsCatalogInMostPopularTable: catalog: 45099, numindb: 6
Update: records affected: 1



GetName: 45099 STARLINK-1186

Hit Count: updated at: Mon, 24 Feb 2020 18:57:16 GMT